Powrót do katalogu

FENGYUN 1C DEB *

AktywnySSO
NORAD 47104·DEBRIS·🇨🇳 China

Wystrzelony May 10, 1999 z Taiyuan Satellite Launch Center

Loading…

Następne Przeloty (najbliższe 24 godziny)

TLE

ŚwieżeSource: Space-Track

Epoka: Sep 12, 2026, 07:44 UTC

1 47104U 99025FCC 26255.32224893  .00000214  00000-0  12193-3 0  9990
2 47104  98.8805 291.0216 0039606 272.4937  87.1705 14.19650908662549

Śledź FENGYUN 1C DEB * w czasie rzeczywistym z AllMySat

Download on the App Store